Content
SEND FEEDBACK

Daily
Averages
Monthly
Summary
United States of America

HATCH, UTAH


Home > North America > United States > Utah
Elevation: 7000 feet     Latitude: 37 39N     Longitude: 112 26W

WEATHER
 
SELECT A DAY
Number of Records: 154,552;   Date Range: 1/3/95 - 8/25/14
 
SHARE

PRINT THIS DATA

[ ← Previous Day ]
WEATHER ALMANAC - JANUARY 31, 2013
[ Next Day → ]
[ °C ]   °F
Weather ElementAverageHighLow
Temperature21.3 °F39 °F (3:53 pm)9 °F (4:53 am)
Dewpoint14 °F21 °F (11:53 am)6.1 °F (8:53 pm)
Humidity75.7 %96 % (4:53 am)41 % (3:53 pm)
Barometer30.31 in30.42 in (6:53 pm)30.21 in (1:53 am)
Wind Speed7.5 mph16.1 mph (8:53 am)
Weather ElementAverage
Visibility10 mi
Wind DirectionWSW (237.1 °)

Weather ElementTotal
Precipitation---
Heating Degree Days41 (Base 65)
Averaged from 24 records on January 31, 2013
WEATHER CONDITIONS BREAKOUT
WIND DIRECTION BREAKOUT
WEATHER BY HOUR - JANUARY 31, 2013
[ °C ]   °F
Local TimeTemperatureDewpointHumidityBarometerVisibilityWind DirectionWind SpeedGust SpeedPrecipitationEventsConditions
1:22 AM23.0 °F19.4 °F86 %30.25 in10.0 miWNW (290°)15.0 mphClear
1:53 AM21.0 °F16.0 °F81 %30.21 in10.0 miNorth (350°)11.5 mphClear
2:53 AM23.0 °F18.0 °F81 %30.22 in10.0 miNW (320°)6.9 mphClear
3:53 AM19.9 °F17.1 °F89 %30.25 in10.0 miWNW (300°)9.2 mphClear
4:53 AM9.0 °F8.1 °F96 %30.32 in10.0 miWest (270°)6.9 mphClear
5:53 AM9.0 °F7.0 °F92 %30.34 in10.0 miWest (270°)9.2 mphClear
6:53 AM10.0 °F8.1 °F92 %30.35 in10.0 miWest (260°)15.0 mphClear
7:53 AM12.9 °F9.0 °F84 %30.38 in10.0 miNNW (330°)13.8 mphClear
8:53 AM24.1 °F16.0 °F71 %30.33 in10.0 miNNW (330°)16.1 mphClear
9:53 AM24.1 °F16.0 °F71 %30.33 in10.0 miNorth (350°)10.4 mphClear
10:53 AM30.0 °F19.9 °F66 %30.30 in10.0 miNorth (350°)8.1 mphClear
11:53 AM33.1 °F21.0 °F61 %30.27 in10.0 miNorth (360°)11.5 mphClear
12:53 PM35.1 °F19.0 °F52 %30.26 in10.0 miNorth (10°)9.2 mphClear
1:53 PM37.0 °F19.9 °F50 %30.23 in10.0 miNorth (350°)5.8 mphClear
2:53 PM35.1 °F19.0 °F52 %30.24 in10.0 miCalmClear
3:53 PM39.0 °F17.1 °F41 %30.23 in10.0 miCalmClear
4:53 PM33.1 °F19.9 °F59 %30.32 in10.0 miCalmClear
5:53 PM19.0 °F14.0 °F81 %30.39 in10.0 miWest (260°)4.6 mphClear
6:53 PM14.0 °F10.0 °F84 %30.42 in10.0 miCalmClear
7:53 PM10.0 °F7.0 °F87 %30.42 in10.0 miWSW (240°)3.5 mphClear
8:53 PM10.0 °F6.1 °F84 %30.38 in10.0 miSW (230°)4.6 mphClear
9:53 PM12.0 °F9.0 °F88 %30.37 in10.0 miWest (270°)8.1 mphClear
10:53 PM15.1 °F10.9 °F84 %30.31 in10.0 miWest (280°)4.6 mphClear
11:53 PM12.9 °F9.0 °F84 %30.31 in10.0 miWest (270°)6.9 mphClear
Hourly data recorded from KBCE, located miles away from Hatch, Utah







STORIES FROM OUR PARTNERS